[[{"header":{"parameterUnit":"m.s-1","parameterCategory":1,"la1":30.2991,"la2":30.254,"lo1":-89.0895,"lo2":-89.0444,"dy":0.0017,"dx":0.0017,"nx":28,"ny":28,"refTime":"2024-06-13T03:00:00:Z","depth":0,"parameterNumber":2,"parameterNumberName":"U-component_of_WINDS"},"data":[0,0,0,0,0,0,0,0,0,0,0,0,0,0,0,0,0,0,0,0,0,0,0,0,0,0,0,0,0,0,0,0,0,0,0,0,0,0,0,0,0,0,0,0,0,0,0,0,0,0,0,0,0,0,0,0,0,0,-2.1565,-2.1566,0,-2.1647,-2.1648,-2.1649,-2.166,-2.1659,-2.1658,-2.1657,-2.1738,-2.1741,-2.1743,0,0,0,0,0,0,0,0,0,0,0,0,0,-2.1415,-2.1418,-2.1565,-2.1566,-2.1567,-2.1647,-2.1648,-2.1649,-2.166,-2.1659,-2.1658,-2.1657,-2.1737,-2.174,-2.1744,0,0,0,0,0,0,0,0,0,0,0,0,0,-2.1487,-2.1419,-2.1565,-2.1582,-2.1585,-2.1647,-2.1648,-2.165,-2.166,-2.1659,-2.1658,-2.1657,-2.1736,-2.174,-2.1744,-2.1794,0,0,-2.1757,-2.1759,0,0,0,0,0,0,0,0,-2.1483,-2.1492,-2.1579,-2.1581,-2.1584,-2.1642,-2.1625,-2.1698,-2.166,-2.1631,-2.1657,-2.1656,-2.1707,-2.1713,-2.1731,-2.1797,-2.1801,-2.1758,-2.176,-2.1762,-2.1763,0,0,0,0,0,0,0,-2.1478,-2.1489,-2.1598,-2.158,-2.1583,-2.1585,-2.1594,-2.1639,-2.1674,-2.1634,-2.1635,-2.1644,-2.1708,-2.1727,-2.1733,-2.1802,-2.1757,-2.1761,-2.1764,-2.1766,-2.1912,-2.1913,0,0,0,0,0,0,-2.147,-2.1485,-2.1595,-2.16,-2.153,-2.1589,-2.1599,-2.1625,-2.1674,-2.168,-2.1645,-2.1645,-2.172,-2.1728,-2.1736,-2.1796,-2.1762,-2.1766,-2.1768,-2.1911,-2.1912,-2.1914,0,0,0,0,0,0,-2.1467,-2.148,-2.1592,-2.1543,-2.1557,-2.1592,-2.1622,-2.1627,-2.1646,-2.1683,-2.1689,-2.1658,-2.1719,-2.173,-2.1779,-2.1799,-2.1768,-2.1772,-2.1909,-2.1911,-2.1913,-2.1917,0,0,0,0,0,0,-2.1463,-2.1479,-2.1499,-2.1543,-2.156,-2.1635,-2.1623,-2.1629,-2.1654,-2.1653,-2.1697,-2.1703,-2.1719,-2.1773,-2.1783,-2.1804,-2.1775,-2.1908,-2.191,-2.1912,-2.1915,-2.1919,-2.1922,0,0,0,0,0,-2.1457,-2.1496,-2.15,-2.1513,-2.1586,-2.1636,-2.1645,-2.1665,-2.1655,-2.1675,-2.1698,-2.1701,-2.1796,-2.1778,-2.179,-2.1812,-2.1906,-2.1909,-2.1912,-2.1914,-2.1918,-2.1922,0,0,0,0,0,0,-2.1452,-2.1502,-2.1507,-2.1561,-2.1594,-2.1637,-2.1663,-2.1669,-2.1704,-2.1702,-2.1724,-2.1734,-2.1782,-2.1802,-2.1782,-2.1862,-2.185,-2.1855,-2.1847,-2.1851,-2.1855,-2.1848,-2.1779,0,0,0,0,0,-2.1457,-2.1495,-2.1536,-2.1581,-2.1597,-2.1627,-2.165,-2.1662,-2.1697,-2.171,-2.1738,-2.177,-2.1807,-2.1831,-2.1867,-2.1919,-2.1927,-2.194,-2.1944,-2.1946,-2.195,-2.1978,-2.1983,-2.1924,-2.1923,-2.1923,0,0,-2.1468,-2.15,-2.1522,-2.158,-2.1607,-2.1644,-2.1639,-2.1678,-2.1706,-2.1716,-2.1764,-2.1785,-2.1823,-2.1874,-2.1897,-2.1892,-2.1969,-2.195,-2.1952,-2.1954,-2.1981,-2.1987,-2.1992,-2.1926,-2.1925,-2.1925,0,0,-2.1506,-2.1536,-2.1575,-2.1602,-2.1644,-2.1663,-2.1673,-2.1716,-2.173,-2.1779,-2.1787,-2.182,-2.1883,-2.191,-2.1931,-2.198,-2.1983,-2.1991,-2.2008,-2.2035,-2.2039,-2.2043,-2.2059,-2.2065,-2.1995,-2.1995,-2.1995,0,-2.1514,-2.1572,-2.1594,-2.1633,-2.1658,-2.167,-2.1709,-2.1735,-2.1785,-2.1801,-2.1795,-2.1875,-2.1901,-2.1957,-2.1969,-2.1987,-2.1997,-2.1985,-2.2037,-2.2042,-2.2046,-2.2061,-2.2067,-2.1996,-2.1996,-2.1996,-2.1996,0,-2.1578,-2.1618,-2.1645,-2.1694,-2.1722,-2.1761,-2.1788,-2.1813,-2.1823,-2.1843,-2.1892,-2.1925,-2.1967,-2.1982,-2.1992,-2.2039,-2.2035,-2.2033,-2.202,-2.2052,-2.2066,-2.2072,-2.1997,-2.1997,-2.1996,-2.1996,0,0,-2.1614,-2.1676,-2.1685,-2.1707,-2.1754,-2.1784,-2.1824,-2.1866,-2.1886,-2.1921,-2.1953,-2.2007,-2.2006,-2.203,-2.2043,-2.2067,-2.2102,-2.2062,-2.2063,-2.2067,-2.2154,-2.2153,-2.216,-2.2105,-2.2106,-2.2107,-2.215,0,-2.1656,-2.1727,-2.1748,-2.1807,-2.1843,-2.1856,-2.189,-2.1922,-2.1942,-2.1975,-2.1997,-2.2034,-2.203,-2.2045,-2.2069,-2.2092,-2.2119,-2.209,-2.2133,-2.2135,-2.2121,-2.2168,-2.2168,-2.2206,-2.2156,-2.2157,-2.2158,0,-2.1714,-2.1751,-2.1814,-2.1855,-2.1871,-2.1901,-2.1942,-2.1973,-2.2009,-2.2022,-2.205,-2.2061,-2.2102,-2.2089,-2.2144,-2.2123,-2.2143,-2.2157,-2.2159,-2.2162,-2.2146,-2.217,-2.2219,-2.2224,-2.2167,-2.2167,-2.2166,0,-2.1731,-2.1796,-2.1842,-2.1861,-2.1911,-2.1932,-2.1954,-2.1989,-2.2013,-2.2048,-2.2063,-2.2102,-2.2123,-2.2153,-2.2174,-2.2163,-2.2226,-2.2216,-2.2236,-2.2236,-2.2247,-2.2246,-2.2298,-2.2264,-2.2263,-2.2263,-2.2263,0,-2.1774,-2.1812,-2.185,-2.1878,-2.192,-2.1944,-2.1985,-2.2007,-2.2038,-2.2069,-2.2084,-2.2112,-2.214,-2.2172,-2.2189,-2.2231,-2.2241,-2.2251,-2.2255,-2.2249,-2.2247,-2.226,-2.2257,-2.2265,-2.2265,-2.2264,-2.2264,0,-2.1799,-2.1827,-2.1877,-2.1921,-2.1933,-2.1962,-2.1999,-2.2026,-2.2047,-2.2087,-2.2097,-2.213,-2.2169,-2.2194,-2.2243,-2.2255,-2.23,-2.2304,-2.2288,-2.2289,-2.2308,-2.2305,-2.2369,-2.2377,-2.2339,-2.2339,-2.2339,0,-2.1824,-2.1853,-2.1901,-2.1923,-2.1946,-2.1982,-2.2007,-2.2032,-2.2056,-2.21,-2.2121,-2.2161,-2.2194,-2.2256,-2.2283,-2.2321,-2.2325,-2.2344,-2.233,-2.2323,-2.2323,-2.232,-2.2322,-2.2346,-2.2346,-2.2346,-2.2347,0,-2.1865,-2.1877,-2.1913,-2.1953,-2.1982,-2.2015,-2.2048,-2.2065,-2.2095,-2.2123,-2.2163,-2.2189,-2.224,-2.2279,-2.2319,-2.234,-2.2348,-2.2351,-2.2358,-2.2351,-2.2339,-2.2344,-2.2292,-2.2349,-2.2349,-2.2349,-2.2349,-2.2348,-2.1889,-2.1915,-2.1952,-2.1991,-2.2019,-2.2049,-2.2076,-2.2101,-2.2136,-2.218,-2.2192,-2.2234,-2.2269,-2.2324,-2.2346,-2.2379,-2.2376,-2.2386,-2.2388,-2.2389,-2.2388,-2.2336,-2.2386,-2.2386,-2.2386,-2.2386,-2.2386,0,-2.1928,-2.1953,-2.1989,-2.2035,-2.2065,-2.2072,-2.2108,-2.2133,-2.217,-2.2202,-2.2235,-2.2281,-2.2319,-2.235,-2.2389,-2.2408,-2.2413,-2.2418,-2.2415,-2.242,-2.239,-2.2379,-2.2413,-2.2413,-2.2413,-2.2413,-2.2413,-2.2413,-2.1952,-2.1996,-2.2013,-2.2071,-2.2095,-2.2137,-2.2157,-2.2184,-2.221,-2.2261,-2.2293,-2.2314,-2.2345,-2.2387,-2.2422,-2.243,-2.2442,-2.2446,-2.2455,-2.2425,-2.2422,-2.2419,-2.2409,-2.2449,-2.2449,-2.2482,-2.2482,-2.2482]},{"header":{"parameterUnit":"m.s-1","parameterCategory":1,"la1":30.2991,"la2":30.254,"lo1":-89.0895,"lo2":-89.0444,"dy":0.0017,"dx":0.0017,"nx":28,"ny":28,"refTime":"2024-06-13T03:00:00:Z","depth":0,"parameterNumber":3,"parameterNumberName":"V-component_of_WINDS"},"data":[0,0,0,0,0,0,0,0,0,0,0,0,0,0,0,0,0,0,0,0,0,0,0,0,0,0,0,0,0,0,0,0,0,0,0,0,0,0,0,0,0,0,0,0,0,0,0,0,0,0,0,0,0,0,0,0,0,0,-1.2034,-1.2035,0,-1.2107,-1.2108,-1.2109,-1.2153,-1.2153,-1.2154,-1.2154,-1.2225,-1.2227,-1.2229,0,0,0,0,0,0,0,0,0,0,0,0,0,-1.193,-1.1932,-1.2034,-1.2035,-1.2036,-1.2107,-1.2108,-1.2109,-1.2153,-1.2153,-1.2154,-1.2154,-1.2225,-1.2227,-1.2229,0,0,0,0,0,0,0,0,0,0,0,0,0,-1.1986,-1.1932,-1.2034,-1.2067,-1.207,-1.2107,-1.2108,-1.2109,-1.2153,-1.2154,-1.2154,-1.2154,-1.2224,-1.2227,-1.2229,-1.2238,0,0,-1.2237,-1.2238,0,0,0,0,0,0,0,0,-1.1983,-1.199,-1.2061,-1.2064,-1.2069,-1.2121,-1.2098,-1.2152,-1.2153,-1.2122,-1.2154,-1.2154,-1.219,-1.2196,-1.2208,-1.2241,-1.2244,-1.2237,-1.2238,-1.224,-1.224,0,0,0,0,0,0,0,-1.1979,-1.1987,-1.2063,-1.2062,-1.2066,-1.2077,-1.2085,-1.2108,-1.2153,-1.2124,-1.2128,-1.2136,-1.2192,-1.2206,-1.221,-1.2245,-1.2237,-1.2239,-1.2241,-1.2242,-1.2288,-1.2288,0,0,0,0,0,0,-1.197,-1.1984,-1.206,-1.2065,-1.2026,-1.2078,-1.2088,-1.2104,-1.2153,-1.2161,-1.2136,-1.2138,-1.2201,-1.2207,-1.2213,-1.2226,-1.224,-1.2242,-1.2243,-1.2289,-1.2288,-1.2288,0,0,0,0,0,0,-1.1968,-1.1977,-1.2057,-1.2025,-1.2036,-1.208,-1.2098,-1.2105,-1.2119,-1.2161,-1.2169,-1.2141,-1.2202,-1.2209,-1.2231,-1.223,-1.2243,-1.2245,-1.2289,-1.2289,-1.2288,-1.2253,0,0,0,0,0,0,-1.1965,-1.1976,-1.198,-1.2025,-1.2038,-1.2075,-1.2098,-1.2106,-1.2123,-1.2127,-1.2169,-1.2176,-1.2203,-1.2227,-1.2234,-1.2233,-1.2247,-1.2289,-1.2289,-1.2288,-1.2254,-1.2251,-1.2249,0,0,0,0,0,-1.1961,-1.1966,-1.198,-1.1989,-1.2044,-1.2075,-1.2082,-1.2114,-1.2123,-1.2127,-1.2155,-1.2175,-1.2229,-1.2229,-1.2237,-1.2237,-1.229,-1.2289,-1.2288,-1.2256,-1.2252,-1.2249,0,0,0,0,0,0,-1.1918,-1.1973,-1.1988,-1.2009,-1.2037,-1.2083,-1.2089,-1.2109,-1.2134,-1.2136,-1.2174,-1.2183,-1.2201,-1.2221,-1.2221,-1.2248,-1.2261,-1.2262,-1.2234,-1.2231,-1.2228,-1.2222,-1.2249,0,0,0,0,0,-1.1912,-1.1933,-1.1979,-1.1992,-1.2006,-1.2045,-1.2059,-1.2082,-1.2112,-1.2124,-1.2153,-1.2181,-1.2204,-1.2219,-1.2242,-1.2258,-1.2267,-1.2262,-1.2259,-1.2256,-1.2256,-1.2266,-1.2264,-1.2286,-1.2286,-1.2286,0,0,-1.1897,-1.193,-1.1941,-1.1985,-1.2009,-1.203,-1.2055,-1.2075,-1.2091,-1.2127,-1.215,-1.2172,-1.2205,-1.2224,-1.2234,-1.2241,-1.2253,-1.2255,-1.2253,-1.2255,-1.2265,-1.2263,-1.2261,-1.2286,-1.2286,-1.2286,0,0,-1.1882,-1.1908,-1.1923,-1.1947,-1.1985,-1.2011,-1.2014,-1.2057,-1.2074,-1.2097,-1.2125,-1.2143,-1.2183,-1.2206,-1.2223,-1.2217,-1.2236,-1.2223,-1.2208,-1.2217,-1.2215,-1.2214,-1.2212,-1.2211,-1.2223,-1.2223,-1.2223,0,-1.1859,-1.1892,-1.1927,-1.1947,-1.1965,-1.2,-1.2015,-1.2036,-1.2079,-1.209,-1.2099,-1.215,-1.2175,-1.22,-1.2198,-1.2211,-1.2215,-1.2218,-1.2213,-1.2212,-1.2211,-1.221,-1.2209,-1.2222,-1.2222,-1.2222,-1.2222,0,-1.1862,-1.1884,-1.1891,-1.1933,-1.1952,-1.1969,-1.2006,-1.2021,-1.2042,-1.2067,-1.209,-1.2122,-1.2153,-1.2161,-1.218,-1.2188,-1.2192,-1.2206,-1.222,-1.2207,-1.2206,-1.2205,-1.2219,-1.222,-1.222,-1.2221,0,0,-1.182,-1.1883,-1.1884,-1.1904,-1.1949,-1.1966,-1.1984,-1.2016,-1.2028,-1.2057,-1.2072,-1.2106,-1.212,-1.2139,-1.2161,-1.2169,-1.2163,-1.2183,-1.2184,-1.2178,-1.2173,-1.2162,-1.216,-1.2176,-1.2176,-1.2176,-1.217,0,-1.1811,-1.1847,-1.1879,-1.1903,-1.1924,-1.1958,-1.1974,-1.2002,-1.2026,-1.2047,-1.2073,-1.2096,-1.2113,-1.2124,-1.2134,-1.2161,-1.2162,-1.2162,-1.219,-1.2191,-1.218,-1.216,-1.2148,-1.2141,-1.217,-1.217,-1.217,0,-1.1805,-1.1833,-1.1859,-1.1902,-1.1912,-1.1926,-1.1958,-1.1978,-1.2011,-1.2027,-1.2049,-1.2074,-1.2094,-1.2106,-1.2134,-1.2134,-1.2147,-1.2162,-1.2163,-1.2166,-1.2179,-1.2162,-1.214,-1.2138,-1.217,-1.217,-1.217,0,-1.1771,-1.1816,-1.1838,-1.1854,-1.1904,-1.1913,-1.1935,-1.1968,-1.1985,-1.2013,-1.2024,-1.2053,-1.2069,-1.2091,-1.2122,-1.2128,-1.2146,-1.2161,-1.216,-1.2159,-1.2162,-1.2161,-1.2141,-1.2171,-1.2171,-1.2171,-1.2171,0,-1.1757,-1.1772,-1.1824,-1.1837,-1.1854,-1.1891,-1.1907,-1.1931,-1.1961,-1.1979,-1.2009,-1.2025,-1.2066,-1.2086,-1.2111,-1.213,-1.2137,-1.2151,-1.2157,-1.2148,-1.2146,-1.2157,-1.2158,-1.2171,-1.2171,-1.2171,-1.2171,0,-1.1723,-1.1758,-1.1784,-1.1831,-1.1843,-1.1853,-1.1893,-1.1906,-1.1933,-1.1955,-1.1962,-1.2003,-1.2028,-1.2062,-1.2098,-1.2115,-1.2131,-1.2141,-1.212,-1.2124,-1.212,-1.212,-1.2106,-1.2105,-1.2136,-1.2136,-1.2135,0,-1.1711,-1.1723,-1.1772,-1.1787,-1.1808,-1.1831,-1.1849,-1.1886,-1.1904,-1.1943,-1.1951,-1.198,-1.2005,-1.2044,-1.2076,-1.2104,-1.2115,-1.2108,-1.2119,-1.211,-1.2114,-1.2113,-1.2114,-1.2105,-1.2104,-1.2104,-1.2103,0,-1.1687,-1.1704,-1.173,-1.1762,-1.1783,-1.1809,-1.1837,-1.1847,-1.189,-1.1908,-1.1936,-1.1955,-1.1993,-1.202,-1.2053,-1.2074,-1.2095,-1.21,-1.2101,-1.2091,-1.2079,-1.2085,-1.2112,-1.21,-1.21,-1.21,-1.2101,-1.2101,-1.1663,-1.1676,-1.1712,-1.174,-1.1765,-1.1791,-1.1806,-1.1835,-1.1859,-1.1893,-1.1914,-1.194,-1.1973,-1.2019,-1.2039,-1.206,-1.2069,-1.207,-1.2071,-1.207,-1.2067,-1.2076,-1.2066,-1.2066,-1.2067,-1.2067,-1.2067,0,-1.164,-1.1666,-1.1691,-1.173,-1.1751,-1.1772,-1.1804,-1.182,-1.1844,-1.1873,-1.1898,-1.1929,-1.1957,-1.1991,-1.2021,-1.2031,-1.2042,-1.2037,-1.2037,-1.2041,-1.2058,-1.2054,-1.2028,-1.2028,-1.2028,-1.2028,-1.2028,-1.2028,-1.1631,-1.1653,-1.1675,-1.171,-1.1735,-1.1763,-1.1779,-1.1803,-1.1827,-1.1862,-1.1885,-1.1908,-1.194,-1.1972,-1.1998,-1.2007,-1.2016,-1.2009,-1.2021,-1.2037,-1.204,-1.2043,-1.204,-1.2011,-1.2011,-1.2003,-1.2003,-1.2002]}]]